Craig, CO

11:51 AM MDT on September 20, 2017 (GMT -0600)
Craig-Moffat

Weather History for KCAG - April, 2014

Change the Weather History Date:

Monday, April 28, 2014

  Actual Average Record
Temperature  
Mean Temperature 37 °F 46 °F  
Max Temperature 48 °F 62 °F 74 °F (2013)
Min Temperature 25 °F 29 °F 21 °F (2008)
Degree Days  
Heating Degree Days 28 19  
Month to date heating degree days 653 635  
Since 1 July heating degree days 7725 7973  
Cooling Degree Days 0 0  
Month to date cooling degree days 0 0  
Year to date cooling degree days 0 0  
Moisture  
Dew Point 19 °F    
Average Humidity 53    
Maximum Humidity 81    
Minimum Humidity 24    
Precipitation  
Precipitation T in 0.07 in 0.32 in (1998)
Month to date precipitation 0.37 1.52  
Year to date precipitation 2.63 4.51  
Sea Level Pressure  
Sea Level Pressure 30.00 in    
Wind  
Wind Speed 13 mph (WNW)    
Max Wind Speed 32 mph    
Max Gust Speed 41 mph    
Visibility 9 miles    
Events Snow    
T = Trace of Precipitation, MM = Missing Value Source: NWS Daily Summary

Daily Weather History Graph

Daily Weather History Graph

Search for Another Location

Airport or City:

Trip Planner

Search our weather history database for the weather conditions in past years. The results will help you decide how hot, cold, wet, or windy it might be!

Date:

Astronomy

Apr. 28, 2014 Rise Set
Actual Time 6:12 AM MDT 8:02 PM MDT
Civil Twilight 5:43 AM MDT 8:32 PM MDT
Nautical Twilight 5:08 AM MDT 9:07 PM MDT
Astronomical Twilight 4:29 AM MDT 9:46 PM MDT
Moon 5:53 AM MDT (4/28) 7:43 PM MDT (4/28)
Length of Visible Light 14h 48m
Length of Day
13h 49m
Waning Crescent, 0% of the Moon is Illuminated
Apr 28
Waning Crescent
Apr 29
New
May 6
First Quarter
May 14
Full
May 21
Last Quarter

Hourly Weather History & Observations

Time (MDT) Temp. Windchill Dew Point Humidity Pressure Visibility Wind Dir Wind Speed Gust Speed Precip Events Conditions
12:53 AM 30.2 °F 21.9 °F 19.4 °F 64% 29.83 in 10.0 mi WSW 9.2 mph - N/A   Clear
1:53 AM 30.2 °F 24.3 °F 21.2 °F 69% 29.84 in 10.0 mi SW 5.8 mph - N/A   Clear
2:53 AM 28.0 °F 22.8 °F 21.0 °F 75% 29.84 in 10.0 mi WSW 4.6 mph - N/A   Partly Cloudy
3:53 AM 28.4 °F - 23.0 °F 80% 29.85 in 10.0 mi Calm Calm - N/A   Overcast
4:53 AM 26.1 °F - 21.9 °F 84% 29.87 in 10.0 mi Calm Calm - N/A   Mostly Cloudy
5:53 AM 27.0 °F 23.0 °F 21.9 °F 81% 29.89 in 10.0 mi SW 3.5 mph - N/A   Scattered Clouds
6:53 AM 30.9 °F 27.5 °F 21.9 °F 69% 29.91 in 10.0 mi WSW 3.5 mph - N/A   Partly Cloudy
7:53 AM 33.8 °F 27.7 °F 21.2 °F 60% 29.92 in 10.0 mi West 6.9 mph - N/A   Mostly Cloudy
8:53 AM 36.0 °F 29.0 °F 18.0 °F 48% 29.93 in 10.0 mi NW 9.2 mph - N/A   Overcast
9:53 AM 37.0 °F 28.5 °F 18.0 °F 46% 29.94 in 10.0 mi West 13.8 mph - N/A   Overcast
10:53 AM 39.9 °F 29.5 °F 16.0 °F 38% 29.91 in 10.0 mi NW 24.2 mph 32.2 mph N/A   Overcast
11:53 AM 43.0 °F 32.9 °F 19.9 °F 40% 29.94 in 10.0 mi WNW 27.6 mph 33.4 mph N/A   Scattered Clouds
12:53 PM 45.0 °F 36.6 °F 14.0 °F 29% 29.91 in 10.0 mi NW 21.9 mph 33.4 mph N/A   Partly Cloudy
1:53 PM 42.1 °F 33.3 °F 8.1 °F 25% 29.93 in 10.0 mi NNW 19.6 mph 33.4 mph N/A   Mostly Cloudy
2:53 PM 42.1 °F 32.6 °F 12.0 °F 29% 29.98 in 10.0 mi West 23.0 mph 29.9 mph N/A   Overcast
3:53 PM 44.1 °F 34.4 °F 10.9 °F 26% 29.99 in 10.0 mi WNW 27.6 mph 36.8 mph N/A   Scattered Clouds
4:53 PM 44.1 °F 35.2 °F 10.9 °F 26% 30.02 in 10.0 mi WNW 23.0 mph 32.2 mph N/A   Clear
5:53 PM 43.0 °F 34.0 °F 10.9 °F 27% 30.04 in 10.0 mi NW 21.9 mph 28.8 mph N/A   Clear
6:00 PM 43.0 °F 34.2 °F 9.0 °F 25% 30.01 in 10.0 mi WNW 20.7 mph 33.4 mph N/A   Clear
6:53 PM 41.0 °F 31.4 °F 12.9 °F 32% 30.06 in 10.0 mi NW 21.9 mph 33.4 mph N/A   Clear
7:53 PM 37.0 °F 27.4 °F 15.1 °F 41% 30.11 in 10.0 mi North 17.3 mph 21.9 mph N/A   Clear
8:53 PM 32.0 °F 25.6 °F 19.4 °F 60% 30.12 in 10.0 mi SW 6.9 mph - N/A   Overcast
9:53 PM 35.1 °F 26.4 °F 19.9 °F 54% 30.19 in 10.0 mi North 12.7 mph - N/A   Overcast
10:42 PM 30.9 °F 21.7 °F 27.0 °F 85% 30.18 in 2.5 mi NNW 11.5 mph - 0.00 in Snow Light Snow
10:44 PM 30.9 °F 21.7 °F 27.0 °F 85% 30.19 in 1.5 mi NW 11.5 mph - 0.00 in Snow Light Snow
10:53 PM 30.0 °F 21.7 °F 28.0 °F 92% 30.22 in 1.8 mi West 9.2 mph - 0.00 in Snow Light Snow
10:55 PM 30.0 °F 22.4 °F 28.0 °F 92% 30.19 in 3.0 mi West 8.1 mph - 0.00 in Snow Light Snow
11:53 PM 30.9 °F 23.5 °F 27.0 °F 85% 30.22 in 10.0 mi WSW 8.1 mph - 0.00 in   Overcast